Torna al catalogo

CRRES DEB

CANISTER

AttivoHEO
NORAD 29531·DEBRIS·🇺🇸 United States

Lanciato Jul 25, 1990 da Cape Canaveral Space Force Station

Loading…

Prossimi Passaggi (prossime 24 ore)

TLE

AggiornatoSource: Space-Track

Epoca: Sep 14, 2026, 10:52 UTC

1 29531U 90065Y   26257.45336694  .00001100  00000-0  14473-2 0  9995
2 29531  17.9989 340.3171 7064904 230.0154  43.0023  2.51413539184793

Traccia CRRES DEB in tempo reale con AllMySat

Download on the App Store